Snowfall_Accumulation
nan nan nan nan nan nan nan nan nan nan nan nan nan nan nan nan nan 0.0 0.0 0.0 0.0 nan nan 0.0 0.0 0.0 0.0 0.0 0.0 0.0 0.0 0.0 0.0 0.0 0.0 0.0 0.0 0.0 0.0 0.0 0.0 0.0 0.0 0.0 0.0
nan nan nan nan nan nan nan nan nan nan nan nan nan nan nan nan 0.0 0.0 nan nan nan nan 0.0 0.0 0.0 0.0 0.0 0.0 0.0 0.0 0.0 0.0 0.0 0.0 0.0 0.0 0.0 0.0 0.0 0.0 0.0 0.0 0.0 0.0 0.0
nan nan nan nan nan nan nan nan nan nan nan nan nan nan nan 0.0 0.0 0.0 nan nan nan 0.0 0.0 0.0 0.0 0.0 0.0 0.0 0.0 0.0 0.0 0.0 0.0 0.0 0.0 0.0 0.0 0.0 0.0 0.0 0.0 0.0 0.0 0.0 0.0
nan nan nan nan nan nan nan nan nan nan nan nan nan nan nan 0.0 0.0 0.0 nan nan nan 0.0 0.0 0.0 0.0 0.0 0.0 0.0 0.0 0.0 0.0 0.0 0.0 0.0 0.0 0.0 0.0 0.0 0.0 0.0 0.0 0.0 0.0 0.0 0.0
nan nan nan nan nan nan nan nan nan nan nan nan nan nan 0.0 0.0 0.0 0.0 nan nan 0.0 0.0 0.0 0.0 0.0 0.0 0.0 0.0 0.0 0.0 0.0 0.0 0.0 0.0 0.0 0.0 0.0 0.0 0.0 0.0 0.0 0.0 0.0 0.0 0.0
nan nan nan nan nan nan nan nan nan nan nan nan nan nan 0.0 0.0 0.0 0.0 0.0 0.0 0.0 0.0 0.0 0.0 0.0 0.0 0.0 0.0 0.0 0.0 0.0 0.0 0.0 0.0 0.0 0.0 0.0 0.0 0.0 0.0 0.0 0.0 0.0 0.0 0.0
nan nan nan nan nan nan nan nan nan nan nan nan nan 0.0 0.0 0.0 0.0 0.0 0.0 0.0 0.0 0.0 0.0 0.0 0.0 0.0 0.0 0.0 0.0 0.0 0.0 0.0 0.0 0.0 0.0 0.0 0.0 0.0 0.0 0.0 0.0 0.0 0.0 0.0 0.0
nan nan nan nan nan nan nan nan nan nan nan nan nan 0.0 0.0 0.0 0.0 0.0 0.0 0.0 0.0 0.0 0.0 0.0 0.0 0.0 0.0 0.0 0.0 0.0 0.0 0.0 0.0 0.0 0.0 0.0 0.1 0.0 0.0 0.0 0.0 0.0 0.0 0.0 0.0
nan nan nan nan nan nan nan nan nan nan nan nan 0.0 0.0 0.0 nan 0.0 0.0 0.0 0.0 0.0 0.0 0.0 0.0 0.0 0.0 0.0 0.0 0.1 0.0 0.1 0.0 0.0 0.0 0.0 0.0 0.0 0.1 0.0 0.0 0.0 0.0 0.0 0.0 0.0
nan nan nan nan nan nan nan nan nan nan 0.0 0.0 0.0 0.0 0.0 0.0 0.0 0.0 0.0 0.0 0.0 0.0 0.0 0.0 0.0 0.0 0.0 0.1 3.5 0.1 0.1 0.1 0.0 0.0 0.0 0.1 0.1 0.1 0.0 0.0 0.0 0.0 0.0 0.0 0.0
nan nan nan nan nan nan 0.0 0.0 0.0 0.0 0.0 0.0 0.0 0.0 0.0 0.0 0.0 0.0 0.0 0.0 0.0 0.0 0.0 0.0 0.0 0.3 0.0 0.0 0.0 0.0 0.2 0.2 0.0 0.0 0.1 0.0 0.3 0.0 0.1 0.0 0.0 0.0 0.0 0.0 0.1
nan nan nan nan nan nan 0.0 0.0 0.0 0.0 0.0 0.0 0.0 0.0 0.0 0.0 0.0 0.0 0.0 0.0 0.0 0.0 0.0 0.1 0.0 0.0 0.0 0.0 0.0 0.0 0.2 0.2 0.0 0.0 0.0 0.1 0.2 0.3 0.1 0.0 0.0 0.0 0.0 0.1 0.2
nan nan nan nan nan 0.0 0.0 0.0 0.0 0.0 0.0 0.0 0.0 0.0 0.0 0.0 0.0 0.0 0.0 0.0 0.0 0.0 0.0 0.1 0.0 0.0 0.0 0.0 0.1 0.1 0.2 0.1 0.1 0.0 0.0 0.1 0.9 0.4 0.1 0.0 0.0 0.0 0.1 0.1 0.2
nan nan nan nan nan 0.0 0.0 0.0 0.0 0.0 0.7 0.1 0.0 0.0 0.0 0.0 0.0 0.0 0.0 0.0 0.0 0.0 0.0 0.0 0.0 0.0 0.0 0.1 0.0 2.3 0.0 0.0 0.1 4.0 2.3 0.7 9.3 0.1 0.0 0.0 0.0 0.0 0.1 0.2 0.2
nan nan nan nan 0.0 0.0 0.0 0.0 0.0 0.0 27.3 0.0 0.0 0.0 0.0 0.0 0.0 0.0 0.0 0.0 0.0 0.0 0.6 0.1 0.1 0.1 2.1 0.1 0.0 2.9 0.0 0.0 0.2 2.6 4.0 0.5 7.5 0.3 0.0 0.0 0.0 0.0 0.1 0.2 0.3
nan nan nan 0.0 0.0 0.0 0.0 0.0 0.0 12.7 29.2 0.1 0.0 0.0 0.0 0.0 0.0 0.0 0.0 0.0 0.0 0.0 0.0 0.1 0.0 0.1 0.1 0.0 0.0 0.0 0.4 0.0 1.0 1.6 19.6 1.6 0.9 0.6 0.9 3.1 0.0 0.0 0.0 0.0 0.2
nan nan nan 0.0 0.0 0.0 0.0 0.0 21.6 46.4 0.2 0.0 0.3 0.0 0.0 0.0 0.0 0.0 0.0 0.1 0.8 7.5 0.9 0.1 0.1 0.0 0.0 0.3 0.0 0.5 1.4 15.5 21.5 29.1 12.2 0.4 0.5 1.1 0.6 1.0 1.2 1.1 0.3 0.7 0.3
nan nan nan 0.0 0.0 0.0 0.0 0.1 48.4 8.3 1.6 0.0 0.0 0.0 0.1 0.0 0.1 0.0 0.3 0.2 0.2 1.5 2.6 3.9 6.4 0.7 0.2 1.3 3.9 0.3 3.9 8.0 10.3 8.4 3.4 0.1 7.6 3.0 2.2 2.7 4.2 2.0 2.1 0.2 0.1
nan 0.0 0.0 0.0 0.0 0.0 0.0 36.1 18.5 1.1 0.0 0.1 0.1 0.8 0.5 0.0 0.6 0.1 0.0 0.1 0.1 0.4 10.7 6.2 2.2 0.1 0.2 0.3 0.1 0.8 3.0 0.2 7.1 3.8 7.6 2.8 0.5 0.4 0.1 1.6 2.1 3.8 0.1 0.2 0.2
0.0 0.0 0.0 0.0 0.0 0.0 5.3 nan 4.6 0.1 0.2 0.7 2.5 1.4 4.4 0.9 0.8 0.3 0.1 0.0 0.0 0.1 0.1 2.2 9.0 0.0 0.1 0.6 0.1 0.2 0.1 4.5 4.8 14.7 7.5 2.1 1.6 6.6 2.8 6.1 1.7 3.4 0.8 0.5 0.2
0.0 0.4 0.0 0.0 0.0 0.2 24.2 9.8 1.6 0.1 0.4 3.6 3.5 2.4 1.2 3.4 0.3 0.9 0.4 0.1 0.2 0.2 0.1 0.3 5.2 1.2 0.7 7.6 7.4 1.3 1.3 0.8 2.0 5.6 13.5 8.4 8.4 14.9 7.7 7.7 6.3 2.1 1.1 1.4 0.9
0.0 8.5 0.0 0.0 6.9 7.7 9.6 3.4 nan 0.7 1.0 0.9 0.5 0.8 2.6 2.9 2.2 0.6 1.0 0.2 0.1 0.2 1.0 0.7 3.3 9.5 7.4 3.9 0.5 0.2 5.1 2.2 9.6 6.7 6.2 8.5 9.7 7.8 8.3 8.5 4.4 1.9 1.4 0.9 1.0
0.8 0.3 0.0 0.0 24.1 14.9 3.8 1.5 1.1 1.0 0.8 0.5 0.6 0.2 1.3 4.0 8.1 0.6 0.1 0.1 0.1 0.8 1.5 1.7 1.6 9.2 7.5 4.1 0.2 2.4 1.3 2.2 2.2 3.7 9.1 11.8 11.2 6.3 6.1 5.1 3.6 4.5 2.3 1.6 1.5
0.1 8.0 2.9 0.2 0.4 1.4 3.1 3.3 3.8 0.2 0.2 0.2 0.3 0.3 2.8 5.0 0.8 4.2 0.3 0.1 0.0 0.2 nan nan 1.1 7.4 11.3 10.1 8.6 8.4 3.3 0.9 1.8 16.6 10.5 12.7 13.5 10.8 7.8 6.7 4.4 3.1 2.5 3.4 5.1
0.2 7.9 12.0 22.6 4.4 0.8 1.5 1.6 1.4 3.2 0.4 0.2 0.3 2.1 3.4 6.7 4.3 5.2 0.2 0.2 0.1 nan 0.7 1.1 7.3 5.3 6.5 6.2 9.7 9.6 6.9 3.2 6.3 8.9 9.2 14.1 13.6 15.0 13.9 11.8 10.0 8.4 7.5 6.7 8.9
0.5 1.3 1.8 4.3 0.3 1.3 1.8 1.3 0.6 1.0 0.8 1.2 3.7 1.8 2.1 6.1 2.3 8.2 0.5 0.0 0.1 0.3 0.3 0.6 5.7 5.3 6.0 5.1 8.3 7.8 4.5 3.3 2.6 3.8 4.9 7.2 11.4 15.9 14.2 13.3 15.1 15.5 12.6 13.1 14.9
0.0 0.0 0.2 nan 1.5 3.2 1.2 0.5 0.6 0.8 0.2 0.0 0.2 1.6 2.4 1.4 0.5 0.3 0.4 0.4 0.4 2.8 1.4 2.3 6.4 9.7 17.2 3.8 2.4 13.9 19.3 8.8 11.7 7.9 4.2 11.8 18.3 20.7 22.6 17.6 19.4 17.9 17.4 17.1 19.4
Water_Equivalent
nan nan nan nan nan nan nan nan nan nan nan nan nan nan nan nan nan 0.00 0.00 0.00 0.00 nan nan 0.00 0.00 0.00 0.00 0.00 0.00 0.00 0.00 0.00 0.00 0.00 0.00 0.00 0.00 0.00 0.00 0.00 0.00 0.00 0.00 0.00 0.00
nan nan nan nan nan nan nan nan nan nan nan nan nan nan nan nan 0.00 0.00 nan nan nan nan 0.00 0.00 0.00 0.00 0.00 0.00 0.00 0.00 0.00 0.00 0.00 0.00 0.00 0.00 0.00 0.00 0.00 0.00 0.00 0.00 0.00 0.00 0.00
nan nan nan nan nan nan nan nan nan nan nan nan nan nan nan 0.00 0.00 0.00 nan nan nan 0.00 0.00 0.00 0.00 0.00 0.00 0.00 0.00 0.00 0.00 0.00 0.00 0.00 0.00 0.00 0.00 0.00 0.00 0.00 0.00 0.00 0.00 0.00 0.00
nan nan nan nan nan nan nan nan nan nan nan nan nan nan nan 0.00 0.00 0.00 nan nan nan 0.00 0.00 0.00 0.00 0.00 0.00 0.00 0.00 0.00 0.00 0.00 0.00 0.00 0.00 0.00 0.00 0.00 0.00 0.00 0.00 0.00 0.00 0.00 0.00
nan nan nan nan nan nan nan nan nan nan nan nan nan nan 0.00 0.00 0.00 0.00 nan nan 0.00 0.00 0.00 0.00 0.00 0.00 0.00 0.00 0.00 0.00 0.00 0.00 0.00 0.00 0.00 0.00 0.00 0.00 0.00 0.00 0.00 0.00 0.00 0.00 0.00
nan nan nan nan nan nan nan nan nan nan nan nan nan nan 0.00 0.00 0.00 0.00 0.00 0.00 0.00 0.00 0.00 0.00 0.00 0.00 0.00 0.00 0.00 0.00 0.00 0.00 0.00 0.00 0.00 0.00 0.00 0.00 0.00 0.00 0.00 0.00 0.00 0.00 0.00
nan nan nan nan nan nan nan nan nan nan nan nan nan 0.00 0.00 0.00 0.00 0.00 0.00 0.00 0.00 0.00 0.00 0.00 0.00 0.00 0.00 0.00 0.00 0.00 0.00 0.00 0.00 0.00 0.00 0.00 0.00 0.00 0.00 0.00 0.00 0.00 0.00 0.00 0.00
nan nan nan nan nan nan nan nan nan nan nan nan nan 0.00 0.00 0.00 0.00 0.00 0.00 0.00 0.00 0.00 0.00 0.00 0.00 0.00 0.00 0.00 0.00 0.00 0.00 0.00 0.00 0.00 0.00 0.00 0.02 0.00 0.00 0.00 0.00 0.00 0.00 0.00 0.00
nan nan nan nan nan nan nan nan nan nan nan nan 0.00 0.00 0.00 nan 0.00 0.00 0.00 0.00 0.00 0.00 0.00 0.00 0.00 0.00 0.00 0.00 0.03 0.00 0.01 0.00 0.00 0.00 0.00 0.00 0.00 0.02 0.00 0.00 0.00 0.00 0.00 0.00 0.00
nan nan nan nan nan nan nan nan nan nan 0.00 0.00 0.00 0.00 0.00 0.00 0.00 0.00 0.00 0.00 0.00 0.00 0.00 0.00 0.00 0.00 0.00 0.01 0.81 0.02 0.02 0.01 0.00 0.00 0.00 0.01 0.01 0.01 0.00 0.00 0.00 0.00 0.00 0.00 0.00
nan nan nan nan nan nan 0.00 0.00 0.00 0.00 0.00 0.00 0.00 0.00 0.00 0.00 0.00 0.00 0.00 0.00 0.00 0.00 0.00 0.00 0.00 0.09 0.00 0.00 0.00 0.00 0.03 0.03 0.00 0.00 0.01 0.00 0.04 0.00 0.01 0.00 0.00 0.00 0.00 0.00 0.02
nan nan nan nan nan nan 0.00 0.00 0.00 0.00 0.00 0.00 0.00 0.00 0.00 0.00 0.00 0.00 0.00 0.00 0.00 0.00 0.00 0.02 0.01 0.00 0.00 0.00 0.00 0.00 0.03 0.04 0.00 0.00 0.01 0.02 0.03 0.05 0.01 0.00 0.00 0.01 0.00 0.01 0.02
nan nan nan nan nan 0.00 0.00 0.00 0.00 0.00 0.00 0.00 0.00 0.00 0.00 0.00 0.00 0.00 0.00 0.00 0.00 0.00 0.00 0.03 0.00 0.00 0.00 0.00 0.02 0.02 0.04 0.02 0.01 0.00 0.00 0.01 0.11 0.06 0.02 0.00 0.00 0.00 0.02 0.02 0.03
nan nan nan nan nan 0.00 0.00 0.00 0.00 0.00 0.25 0.02 0.00 0.00 0.00 0.00 0.00 0.00 0.00 0.00 0.00 0.00 0.00 0.01 0.00 0.00 0.00 0.01 0.01 0.38 0.00 0.00 0.02 0.53 0.31 0.10 1.15 0.01 0.00 0.00 0.01 0.01 0.02 0.02 0.02
nan nan nan nan 0.00 0.00 0.00 0.00 0.00 0.00 5.78 0.00 0.00 0.00 0.00 0.00 0.00 0.00 0.00 0.00 0.00 0.00 0.14 0.02 0.01 0.02 0.37 0.01 0.00 0.47 0.00 0.01 0.04 0.41 0.43 0.07 0.78 0.03 0.00 0.00 0.00 0.00 0.01 0.03 0.03
nan nan nan 0.00 0.00 0.00 0.00 0.00 0.00 3.99 6.70 0.04 0.00 0.00 0.00 0.00 0.00 0.00 0.00 0.00 0.00 0.00 0.00 0.02 0.00 0.03 0.02 0.00 0.01 0.00 0.07 0.01 0.17 0.28 2.94 0.19 0.11 0.07 0.10 0.31 0.00 0.00 0.00 0.01 0.03
nan nan nan 0.00 0.00 0.00 0.00 0.00 7.07 12.64 0.08 0.00 0.11 0.00 0.00 0.00 0.00 0.00 0.00 0.02 0.16 1.40 0.16 0.03 0.02 0.01 0.01 0.06 0.01 0.11 0.23 2.60 3.76 4.63 1.81 0.06 0.08 0.12 0.07 0.12 0.14 0.10 0.03 0.10 0.04
nan nan nan 0.00 0.00 0.00 0.00 0.05 13.64 2.70 0.51 0.00 0.00 0.00 0.04 0.01 0.02 0.01 0.05 0.03 0.03 0.22 0.39 0.77 1.38 0.16 0.06 0.21 0.59 0.05 0.51 1.06 1.06 1.04 0.48 0.02 1.11 0.38 0.25 0.32 0.47 0.21 0.27 0.03 0.02
nan 0.00 0.00 0.00 0.00 0.00 0.00 11.21 5.14 0.33 0.01 0.02 0.01 0.21 0.16 0.01 0.15 0.01 0.00 0.02 0.01 0.06 1.60 0.96 0.45 0.01 0.05 0.08 0.02 0.13 0.48 0.03 0.88 0.66 0.77 0.49 0.06 0.05 0.02 0.21 0.22 0.38 0.02 0.03 0.03
0.00 0.00 0.00 0.00 0.00 0.00 2.10 nan 1.75 0.02 0.04 0.16 0.51 0.30 1.10 0.29 0.18 0.07 0.01 0.01 0.01 0.02 0.02 0.37 1.27 0.00 0.02 0.18 0.04 0.04 0.02 0.66 0.91 2.05 0.91 0.27 0.20 0.77 0.33 0.58 0.14 0.36 0.09 0.07 0.04
0.00 0.17 0.00 0.00 0.00 0.07 7.79 3.32 0.55 0.02 0.10 0.79 0.80 0.46 0.26 0.79 0.06 0.20 0.06 0.02 0.03 0.04 0.02 0.07 0.74 0.23 0.10 1.59 1.20 0.21 0.19 0.11 0.24 0.80 1.52 0.88 1.14 2.15 0.62 0.57 0.56 0.24 0.13 0.16 0.11
0.00 3.40 0.00 0.00 2.77 3.09 3.18 1.17 nan 0.16 0.21 0.19 0.10 0.14 0.59 0.63 0.51 0.11 0.15 0.04 0.01 0.03 0.13 0.11 0.48 1.47 1.43 0.82 0.10 0.05 0.73 0.29 1.54 0.94 0.85 1.08 1.00 1.12 0.79 0.79 0.44 0.20 0.17 0.13 0.14
0.33 0.11 0.00 0.00 7.58 4.78 1.23 0.32 0.21 0.19 0.14 0.10 0.10 0.05 0.31 0.89 1.44 0.16 0.02 0.02 0.01 0.13 0.23 0.30 0.32 1.73 1.45 0.79 0.05 0.37 0.20 0.32 0.25 0.53 1.23 1.66 1.34 0.77 0.74 0.64 0.41 0.45 0.27 0.21 0.21
0.05 2.99 1.15 0.09 0.16 0.38 0.76 0.78 0.92 0.04 0.06 0.04 0.06 0.05 0.56 0.94 0.17 0.83 0.07 0.01 0.00 0.04 nan nan 0.17 0.90 1.46 1.40 1.28 1.01 0.44 0.11 0.27 2.95 1.49 1.31 1.31 1.07 0.81 0.79 0.56 0.45 0.29 0.37 0.56
0.10 3.12 4.79 7.47 1.48 0.18 0.29 0.33 0.35 0.73 0.08 0.05 0.06 0.46 0.62 1.10 0.70 0.91 0.04 0.02 0.01 nan 0.11 0.17 1.19 0.61 0.84 0.81 1.33 1.40 0.87 0.36 0.65 1.09 1.16 1.46 1.27 1.38 1.29 1.17 1.19 1.06 0.77 0.66 0.86
0.20 0.50 0.73 1.70 0.07 0.26 0.33 0.30 0.10 0.20 0.15 0.28 0.66 0.37 0.43 0.97 0.49 1.27 0.11 0.00 0.02 0.04 0.04 0.09 1.20 0.60 0.91 0.77 1.20 1.11 0.58 0.45 0.30 0.41 0.56 0.86 1.16 1.72 1.56 1.33 1.48 1.63 1.17 1.18 1.32
0.00 0.00 0.09 nan 0.33 0.82 0.34 0.11 0.12 0.18 0.04 0.01 0.04 0.29 0.36 0.31 0.09 0.07 0.06 0.07 0.07 0.37 0.19 0.32 0.88 2.14 3.65 0.51 0.34 2.58 2.05 1.01 1.32 0.91 0.50 1.11 2.51 2.62 2.48 1.69 1.80 1.61 1.51 1.55 1.92
SL_Ratio
nan nan nan nan nan nan nan nan nan nan nan nan nan nan nan nan nan nan nan nan nan nan nan nan nan nan nan nan nan nan nan nan nan nan nan nan nan nan nan nan nan nan nan nan nan
nan nan nan nan nan nan nan nan nan nan nan nan nan nan nan nan nan nan nan nan nan nan nan nan nan nan nan nan nan nan nan nan nan nan nan nan nan nan nan nan nan nan nan nan nan
nan nan nan nan nan nan nan nan nan nan nan nan nan nan nan nan nan nan nan nan nan nan nan nan nan nan nan nan nan nan nan nan nan nan nan nan nan nan nan nan nan nan nan nan nan
nan nan nan nan nan nan nan nan nan nan nan nan nan nan nan nan nan nan nan nan nan nan nan nan nan nan nan nan nan nan nan nan nan nan nan nan nan nan nan nan nan nan nan nan nan
nan nan nan nan nan nan nan nan nan nan nan nan nan nan nan nan nan nan nan nan nan nan nan nan nan nan nan nan nan nan nan nan nan nan nan nan nan nan nan nan nan nan nan nan nan
nan nan nan nan nan nan nan nan nan nan nan nan nan nan nan nan nan nan nan nan nan nan nan nan nan nan nan nan nan nan nan nan nan nan nan nan nan nan nan nan nan nan nan nan nan
nan nan nan nan nan nan nan nan nan nan nan nan nan nan nan nan nan nan nan nan nan nan nan nan nan nan nan nan nan nan nan nan nan nan nan nan nan nan nan nan nan nan nan nan nan
nan nan nan nan nan nan nan nan nan nan nan nan nan nan nan nan nan nan nan nan nan nan nan nan nan nan nan nan nan nan nan nan nan nan nan nan 7.9 nan nan nan nan nan nan nan nan
nan nan nan nan nan nan nan nan nan nan nan nan nan nan nan nan nan nan nan nan nan nan nan nan nan nan nan nan 4.2 nan 5.3 nan nan nan nan 5.0 7.5 4.9 nan nan nan nan nan nan nan
nan nan nan nan nan nan nan nan nan nan nan nan nan nan nan nan nan nan nan nan nan nan nan nan nan nan nan 5.0 4.4 4.2 6.7 6.6 5.0 nan nan 6.3 6.9 5.0 nan nan nan nan nan nan nan
nan nan nan nan nan nan nan nan nan nan nan nan nan nan nan nan nan nan nan nan nan nan nan nan nan 3.2 nan nan nan 5.0 5.7 6.0 nan nan 5.9 nan 6.9 5.8 4.8 nan nan nan nan 7.0 6.9
nan nan nan nan nan nan nan nan nan nan nan nan nan nan nan nan nan nan nan nan nan nan nan 3.6 3.9 nan nan nan nan 5.0 5.4 5.3 5.0 nan 6.5 6.0 7.4 6.1 5.0 5.0 nan 7.8 7.5 7.4 7.2
nan nan nan nan nan nan nan nan nan nan nan nan nan nan nan nan nan nan nan nan nan nan nan 3.4 5.0 nan nan 4.2 4.7 5.2 5.7 6.2 7.2 nan nan 7.1 7.8 6.6 4.5 5.0 nan nan 7.2 7.4 7.9
nan nan nan nan nan nan nan nan nan nan 2.7 2.6 nan nan nan nan nan nan nan nan nan 5.0 6.3 4.4 nan 5.0 5.0 4.3 4.6 6.2 nan nan 4.1 7.6 7.2 6.6 8.0 7.7 nan nan 7.2 8.1 8.1 8.2 7.9
nan nan nan nan nan nan nan nan nan nan 4.7 nan nan nan nan nan nan nan nan nan nan nan 3.9 4.3 5.6 4.6 5.7 5.0 5.0 6.2 nan 4.4 5.0 6.4 9.3 7.6 9.6 8.5 nan nan nan nan 8.3 8.3 8.0
nan nan nan nan nan nan nan nan nan 3.2 4.4 3.2 nan nan nan nan nan nan nan nan nan 3.6 5.0 4.0 nan 3.8 4.1 nan 3.2 3.3 5.6 4.6 5.7 5.8 6.7 8.5 7.6 9.2 9.8 9.9 7.5 nan nan 8.3 7.4
nan nan nan nan nan nan nan nan 3.1 3.7 2.5 2.0 2.7 nan 5.0 5.0 5.0 5.0 5.0 6.0 5.1 5.3 5.4 4.8 4.1 5.5 4.6 4.6 5.6 4.4 5.9 6.0 5.7 6.3 6.7 6.6 5.9 9.8 8.6 8.5 8.9 10.7 8.4 7.3 6.6
nan nan nan nan nan nan nan 2.5 3.5 3.1 3.2 nan 0.0 nan 3.0 3.8 4.3 5.4 6.8 7.6 6.2 6.7 6.5 5.1 4.7 4.3 3.1 6.1 6.7 5.4 7.5 7.6 9.7 8.1 7.1 6.1 6.9 7.8 8.5 8.5 9.0 9.6 8.0 7.4 5.8
nan nan nan nan nan nan 3.3 3.2 3.6 3.3 3.1 3.8 4.5 3.8 3.2 4.2 3.8 6.5 6.0 5.2 5.3 5.8 6.7 6.5 4.9 4.1 3.8 3.9 3.8 6.1 6.2 6.5 8.1 5.7 9.9 5.7 7.3 7.7 6.4 7.5 9.4 10.1 5.3 5.5 5.4
nan nan nan nan nan nan 2.5 nan 2.6 3.8 4.2 4.5 4.9 4.6 4.0 3.3 4.3 4.2 5.4 4.7 5.5 5.1 4.2 5.8 7.1 5.0 5.9 3.4 4.0 5.0 4.8 6.8 5.2 7.1 8.3 7.7 8.0 8.5 8.4 10.5 11.8 9.4 8.1 6.8 5.3
nan 2.5 nan nan nan 2.5 3.1 2.9 2.9 4.3 4.4 4.5 4.4 5.3 4.7 4.3 4.9 4.4 6.4 6.0 5.6 5.9 5.0 5.0 7.0 5.0 6.4 4.8 6.2 6.4 7.2 7.1 8.1 7.1 8.9 9.5 7.3 7.0 12.3 13.4 11.3 9.0 8.6 8.6 7.9
3.3 2.5 nan nan 2.5 2.5 3.0 2.9 nan 4.6 4.6 5.0 5.4 5.6 4.4 4.6 4.4 5.4 6.7 6.7 6.0 6.0 7.4 6.4 6.8 6.5 5.1 4.7 4.8 4.6 6.9 7.3 6.2 7.1 7.3 7.9 9.6 7.0 10.6 10.7 9.9 9.6 8.5 7.2 7.1
2.5 2.5 nan nan 3.2 3.1 3.1 4.8 5.2 5.6 5.4 5.0 5.5 4.8 4.0 4.5 5.6 3.8 7.2 6.0 5.7 6.1 6.5 5.8 5.0 5.3 5.2 5.2 5.4 6.4 6.5 6.8 8.7 7.0 7.4 7.1 8.3 8.3 8.2 8.0 8.9 10.0 8.6 7.5 7.0
2.5 2.7 2.5 2.5 2.5 3.7 4.1 4.3 4.1 4.5 4.2 4.6 5.5 5.4 4.9 5.3 5.0 5.0 4.7 7.0 nan 6.0 nan nan 6.4 8.2 7.8 7.2 6.7 8.2 7.5 8.1 6.9 5.6 7.0 9.7 10.3 10.1 9.6 8.5 7.8 6.9 8.8 9.2 9.1
2.5 2.5 2.5 3.0 3.0 4.4 5.0 4.8 4.1 4.5 4.7 4.2 5.3 4.6 5.4 6.1 6.1 5.7 6.0 7.3 6.4 nan 6.2 6.7 6.1 8.7 7.7 7.7 7.3 6.9 8.0 9.0 9.7 8.2 7.9 9.6 10.7 10.9 10.8 10.1 8.4 8.0 9.7 10.1 10.3
2.5 2.5 2.5 2.5 3.8 5.2 5.5 4.4 5.4 4.9 5.6 4.2 5.6 4.7 4.9 6.3 4.8 6.5 4.4 4.0 4.0 7.5 7.7 6.2 4.8 8.9 6.6 6.6 6.9 7.0 7.7 7.4 8.6 9.3 8.8 8.4 9.8 9.2 9.1 10.0 10.2 9.5 10.8 11.1 11.3
nan nan 2.5 nan 4.4 4.0 3.6 4.9 5.1 4.8 4.4 3.8 4.5 5.4 6.7 4.6 5.1 4.4 6.6 6.8 6.2 7.5 7.3 7.2 7.3 4.5 4.7 7.3 7.1 5.4 9.4 8.7 8.8 8.7 8.5 10.6 7.3 7.9 9.1 10.4 10.8 11.1 11.5 11.0 10.1